Home   Weather   Menden (Sauerland)   Past weeks
Flag for Germany

Past Weather in Menden (Sauerland), North Rhine-Westphalia, Germany — Yesterday and Last 2 Weeks

Now
61 °F

Partly cloudy.


Feels Like: 61 °F
Forecast: 71 / 55 °F
Wind: 7 mph from Southwest

Location: Dortmund / Wickede

Current Time: Oct 14, 2019 at 3:27:59 am

Latest Report: Oct 14, 2019 at 2:50 am


Visibility: N/A

Pressure: 29.92 "Hg

Humidity: 94%

Dew Point: 59 °F

Location of Menden (Sauerland)Location

Past Weather in Menden (Sauerland) — Graph

°F

Menden (Sauerland) Temperature Yesterday

Maximum temperature yesterday: 73 °F (at 3:20 pm)
Minimum temperature yesterday: 59 °F (at 2:20 am)
Average temperature yesterday: 67 °F

High & Low Weather Summary for the Past Weeks

 TemperatureHumidityPressure
High73 °F (Oct 13, 3:20 pm)100% (Sep 29, 9:50 pm)30.09 "Hg (Sep 29, 9:50 pm)
Low41 °F (Oct 7, 7:50 am)59% (Oct 10, 6:20 pm)29.39 "Hg (Sep 29, 8:20 pm)
Average55 °F83%29.81 "Hg
* Reported Sep 29 1:20 am — Oct 14 1:50 am, Menden (Sauerland). Weather by CustomWeather, © 2019

Note: Actual official high and low records may vary slightly from our data, if they occured in-between our weather recording intervals... More about our weather records

Advertising

Menden (Sauerland) Weather History for the Previous 24 Hours

Scroll right to see more
 ConditionsComfort  
Time TempWeatherWind HumidityBarometerVisibility
1:50 am
Mon, Oct 14
63 °FOvercast.7 mph88%29.89 "HgN/A
1:20 am63 °FPartly cloudy.5 mph94%29.89 "HgN/A
12:50 am64 °FPassing clouds.6 mph88%29.86 "HgN/A
12:20 am68 °FPassing clouds.12 mph69%29.86 "HgN/A
11:50 pm
Sun, Oct 13
68 °FPassing clouds.10 mph69%29.86 "HgN/A
11:20 pm70 °FPassing clouds.18 mph64%29.83 "HgN/A
10:50 pm70 °FPartly cloudy.16 mph64%29.83 "HgN/A
10:20 pm70 °FPassing clouds.15 mph64%29.80 "HgN/A
9:50 pm70 °FClear.17 mph69%29.80 "Hg10 mi
9:20 pm70 °FClear.15 mph64%29.80 "Hg10 mi
8:50 pm70 °FClear.15 mph69%29.77 "Hg10 mi
8:20 pm70 °FClear.14 mph64%29.77 "Hg10 mi
7:50 pm70 °FClear.12 mph69%29.77 "Hg10 mi
7:20 pm70 °FClear.13 mph69%29.77 "Hg10 mi
6:50 pm70 °FClear.14 mph69%29.77 "Hg10 mi
6:20 pm72 °FSunny.17 mph65%29.77 "Hg10 mi
5:50 pm72 °FPassing clouds.15 mph65%29.77 "HgN/A
5:20 pm73 °FSunny.21 mph61%29.74 "Hg10 mi
4:50 pm73 °FPassing clouds.18 mph61%29.74 "HgN/A
4:20 pm73 °FSunny.18 mph61%29.74 "Hg10 mi
3:50 pm73 °FSunny.13 mph61%29.77 "Hg10 mi
3:20 pm73 °FSunny.14 mph65%29.77 "Hg10 mi
2:50 pm72 °FPassing clouds.14 mph65%29.77 "HgN/A
2:20 pm70 °FSunny.9 mph73%29.77 "Hg10 mi
1:50 pm68 °FSprinkles. Passing clouds.12 mph73%29.80 "HgN/A
1:20 pm68 °FPassing clouds.8 mph73%29.80 "HgN/A
12:50 pm68 °FPassing clouds.12 mph78%29.80 "HgN/A
12:20 pm66 °FScattered clouds.9 mph78%29.80 "HgN/A
11:50 am66 °FSunny.14 mph78%29.80 "Hg10 mi
11:20 am66 °FSunny.13 mph78%29.80 "Hg10 mi
10:50 am64 °FPassing clouds.15 mph83%29.83 "HgN/A
10:20 am64 °FScattered clouds.13 mph83%29.83 "HgN/A
9:50 am64 °FPassing clouds.14 mph83%29.83 "HgN/A
9:20 am64 °FPassing clouds.14 mph83%29.80 "HgN/A
8:50 am63 °FScattered clouds.10 mph88%29.80 "HgN/A
8:20 am64 °FPassing clouds.13 mph83%29.80 "HgN/A
7:50 am63 °FPassing clouds.13 mph88%29.80 "HgN/A
7:20 am63 °FPassing clouds.12 mph88%29.80 "HgN/A
6:50 am63 °FPartly cloudy.10 mph83%29.80 "HgN/A
6:20 am63 °FPassing clouds.6 mph83%29.80 "HgN/A
5:50 am63 °FPassing clouds.9 mph83%29.80 "HgN/A
5:20 am61 °FPassing clouds.8 mph88%29.83 "HgN/A
4:20 am61 °FPassing clouds.8 mph88%29.83 "HgN/A
3:50 am61 °FPassing clouds.7 mph83%29.83 "HgN/A
3:20 am61 °FPassing clouds.8 mph83%29.83 "HgN/A
Weather by CustomWeather, © 2019

See weather overview